Showing default

EUTE 28A (EB 1), 26719

Orbit data source: Space-Track

EUTE 28A (EB 1), 26719 is a payload satellite owned by Eutelsat (FR) in GEO that was launched on Thu, 08 Mar 2001 UTC via an ARIANE 5G launch vehicle from the French Guiana (FRGUI). Payload-class satellites include a variety of spacecraft equipped with specific instruments for various scientific and technological missions. These include communications satellites like Starlink; space stations such as the ISS; scientific satellites like the Hubble; Earth observation satellites from companies like Planet Labs, Umbra, and HawkEye 360; GPS; miniature CubeSats for education and research; and military/defense satellites.

Loading next visibility...
Identifier
26719, 2001-011A
Orbit
GEO
Country
Flag of UnknownUnknown / EUTE
Related business
Manufacturer
Alcatel/Cannes
Mission
Non-operational Commercial Communications
Bus & Motor
SPACEBUS 3000B2, S400
Mass
3,050 kg wet, ~1,300 kg dry
Launch date (UTC)
2001-03-08 (25 years ago)
Launch vehicle
ARIANE 5G
Launch site
French Guiana (FRGUI)
Object type
Payload
Rocket body
Debris
Shape & HBR
Box + 2 Pan, 1.1 m
Radar Cross Section
27.172 m², Large (>1 m²)

Expand to show TLE details & history
Last TLE update: 12 hours ago

TLE from 12 hours ago
0 EUTE 28A (EB 1)
1 26719U 01011A   25260.85480406 -.00000124  00000-0  00000-0 0  9996
2 26719   6.6916  70.4128 0002206 267.4330 258.5757  0.98791224 89695
Epoch: 2025-09-17T20:30Z
TLE epoch observation values (Epoch: 2025-09-17T20:30:55.07Z)
Latitude
1.63973°
Longitude
-68.26945°
Altitude
36,208.03 km
Speed
3.059 km/s
True Right ascension
15h 45m 56s
True Declination
1° 38' 17"
Sunlit
Object was in daylight at epoch
Visualization orbit readout
Latitude
Unknown
Longitude
Unknown
Altitude
Unknown
Speed
Unknown
Apparent Right ascension
Unknown
Apparent Declination
Unknown
Sunlit
N/A
Visualization observer readout
Local Sidereal Time
01:36:17
Azimuth
Unknown
Elevation
Unknown
Doppler factor
Unknown
Orbital elements
Apogee altitude
36,217.259 km
Perigee altitude
36,198.47 km
Semi-major axis
42,586.001 km
Eccentricity
0.00022
Inclination
6.6916°
RAAN
70.4128°
Arg. of periapsis
267.433°
True anomaly
258.55092°
Mean anomaly
258.5757°
Eccentric anomaly
258.56331°
Mean motion
0.24697 °/min
Orbital period
1,457.67 mins
BSTAR
0
Loading maneuver chart data...
Computing Atmospheric mass density...
Loading historical data...
Loading historical data...
Loading historical data...
Loading historical data...
Loading historical data...
Loading historical data...
Loading historical data...
Other satellites on launch #11 in the year 2001 (2001-03-08 UTC)

Documentation

Showing up to 5 results
|